sat.trackr.live / text

‹ back to catalog

STARLINK-30162

NORAD 57446 · 2023-105S

PAYLOAD ACTIVE UNKNOWN

§ Identity

Operator
Country
US
Launch date
2023-07-24
Launch site
AFETR
Launch vehicle
Mass (kg)
RCS (m²)

Purposes: comms

External: N2YO · Heavens-Above · Gunter

§ Orbital elements

Epoch: 2026-05-25T01:43:15.756960Z

Period
94.27 min
Inclination
43.0035°
Eccentricity
0.0001261
Mean motion
15.27585463 rev/d
Perigee alt
482.2 km
Apogee alt
483.9 km
Semi-major
6,861.2 km
B*
-1.7545e-5
RAAN
177.4306°
Arg perigee
291.0292°
Mean anomaly
69.0425°
Rev number
15,739

§ Raw data

STARLINK-301621 57446U 23105S   26145.07171015 -.00000745  00000+0 -17545-4 0  99902 57446  43.0035 177.4306 0001261 291.0292  69.0425 15.27585463157393

JSON: /api/v1/satellites/57446 · /tle

For live sub-satellite position, see the globe view (requires WebGL).

§ Visibility from observer

Set your observer location to see the next 7 days of passes ≥ 10°. The values pass through the URL so the page stays shareable.

No JS? Fill the form by hand. The geolocation button needs JavaScript.